Probability
0 0 0 0 0 0 0 0 0 0 0 0 0 0 0 0 0 0 0 0 0 0 0 0 0 0 0 0 0 0 0 0 0 0 0 0 6 16
0 0 0 0 0 0 0 0 0 0 0 0 0 0 0 0 0 0 0 0 0 0 0 0 0 0 0 0 0 0 0 0 0 0 0 0 0 3
0 0 0 0 0 0 0 0 0 0 0 0 0 0 0 0 0 0 0 0 0 0 0 0 0 0 0 0 0 0 0 0 0 0 0 0 0 0
0 0 0 0 0 0 0 0 0 0 0 0 0 0 0 0 0 0 0 0 0 0 0 0 0 0 0 0 0 0 0 0 0 0 0 0 0 0
0 0 0 0 0 0 0 0 0 0 0 0 0 0 0 0 0 0 0 0 0 0 0 0 0 0 0 0 0 0 0 0 0 0 0 0 0 0
0 0 0 0 0 0 0 0 0 0 0 0 0 0 0 0 0 0 0 0 0 0 0 0 0 0 0 0 0 0 0 0 0 0 0 0 0 0
0 0 0 0 0 0 0 0 0 0 0 0 0 0 0 0 0 0 0 0 0 0 0 0 0 0 0 0 0 0 0 0 0 0 0 0 0 0
0 0 0 0 0 0 0 0 0 0 0 0 0 0 0 0 0 0 0 0 0 0 0 0 0 0 0 0 0 0 0 0 0 0 0 0 0 0
0 0 0 0 0 0 0 0 0 0 0 0 0 0 0 0 0 0 0 0 0 0 0 0 0 0 0 0 0 0 0 0 0 0 0 0 0 0
0 0 0 0 0 0 0 0 0 0 0 0 0 0 0 0 0 0 0 0 0 0 0 0 0 0 0 0 0 0 0 0 0 0 0 0 0 0
0 0 0 0 0 0 0 0 0 0 0 0 0 0 0 0 0 0 0 0 0 0 0 0 0 0 0 0 0 0 0 0 0 0 0 0 0 0
0 0 0 0 0 0 0 0 0 0 0 0 0 0 0 0 0 0 0 0 0 0 0 0 0 0 0 0 0 0 0 0 0 0 0 0 0 0
0 0 0 0 0 0 0 0 0 0 0 0 0 0 0 0 0 0 0 0 0 0 0 0 0 0 0 0 0 0 0 0 0 0 0 0 0 0
0 0 0 0 0 0 0 0 0 0 0 0 0 0 0 0 0 0 0 0 0 0 0 0 0 0 0 0 0 0 0 0 0 0 0 0 0 0
0 0 0 0 0 0 0 0 0 0 0 0 0 0 0 0 0 0 0 0 0 0 0 0 0 0 0 0 0 0 0 0 0 0 0 0 0 0
0 0 0 0 0 0 0 0 0 0 0 0 0 0 0 0 0 0 0 0 0 0 0 0 0 0 0 0 0 0 0 0 0 0 0 0 0 0
0 0 0 0 0 0 0 0 0 0 0 0 0 0 0 0 0 0 0 0 0 0 0 0 0 0 0 0 0 0 0 0 0 0 0 0 0 0
0 0 0 0 0 0 0 0 0 0 0 0 0 0 0 0 0 0 0 0 0 0 0 0 0 0 0 0 0 0 0 0 0 0 0 0 0 0
0 0 0 0 0 0 0 0 0 0 0 0 0 0 0 0 0 0 0 0 0 0 0 0 0 0 0 0 0 0 0 0 0 0 0 0 0 0
0 0 0 0 0 0 0 0 0 0 0 0 0 0 0 0 0 0 0 0 0 0 0 0 0 0 0 0 0 0 0 0 0 0 0 0 0 0
0 0 0 0 0 0 0 0 0 0 0 0 0 0 0 0 0 0 0 0 0 0 0 0 0 0 0 0 0 0 0 0 0 0 0 0 0 0
0 0 0 0 0 0 0 0 0 0 0 0 0 0 0 0 0 0 0 0 0 0 0 0 0 0 0 0 0 0 0 0 0 0 0 0 0 0
0 0 0 0 0 0 0 0 0 0 0 0 0 0 0 0 0 0 0 0 0 0 0 0 0 0 0 0 0 0 0 0 0 0 0 0 0 0
Height
5308 5300 5294 5289 5286 5282 5279 5278 5278 5281 5286 5293 5303 5315 5328 5342 5356 5370 5386 5403 5423 5446 5471 5498 5523 5549 5573 5596 5618 5638 5657 5674 5690 5705 5718 5730 5741 5752
5305 5297 5290 5286 5282 5280 5277 5276 5276 5278 5282 5288 5297 5308 5321 5335 5348 5361 5374 5389 5407 5429 5453 5478 5504 5530 5554 5579 5601 5622 5642 5660 5677 5693 5707 5720 5732 5742
5302 5294 5288 5283 5280 5277 5275 5274 5274 5275 5280 5285 5293 5303 5316 5328 5340 5352 5364 5377 5393 5413 5435 5460 5485 5512 5537 5562 5585 5607 5628 5647 5664 5680 5695 5709 5721 5732
5302 5293 5286 5281 5278 5275 5274 5273 5273 5274 5277 5282 5289 5299 5310 5322 5333 5344 5355 5367 5382 5400 5420 5444 5469 5495 5521 5546 5570 5592 5613 5633 5652 5669 5685 5699 5711 5721
5302 5293 5286 5280 5277 5274 5273 5271 5271 5272 5274 5279 5286 5294 5305 5316 5327 5337 5347 5358 5371 5387 5407 5430 5454 5480 5505 5531 5555 5578 5600 5622 5642 5659 5673 5686 5700 5712
5303 5294 5287 5281 5277 5274 5272 5271 5270 5271 5273 5277 5283 5291 5300 5310 5321 5330 5340 5349 5362 5376 5395 5416 5440 5465 5491 5517 5544 5566 5588 5607 5626 5645 5661 5676 5688 5701
5305 5296 5288 5282 5277 5274 5272 5270 5270 5270 5272 5275 5280 5287 5296 5305 5314 5324 5333 5342 5353 5366 5384 5405 5429 5455 5479 5504 5527 5550 5573 5594 5614 5633 5650 5665 5679 5690
5307 5298 5290 5284 5278 5275 5272 5270 5270 5270 5271 5274 5278 5284 5291 5299 5308 5317 5326 5334 5346 5359 5375 5395 5417 5442 5466 5491 5516 5540 5562 5583 5603 5622 5639 5655 5668 5681
5310 5301 5293 5286 5280 5276 5273 5271 5270 5270 5271 5273 5276 5281 5287 5294 5302 5311 5319 5327 5338 5350 5366 5387 5408 5433 5457 5481 5504 5527 5550 5571 5591 5611 5628 5644 5658 5671
5313 5304 5296 5289 5283 5279 5275 5273 5271 5270 5270 5272 5274 5278 5283 5289 5296 5304 5312 5321 5331 5344 5360 5380 5401 5425 5448 5471 5494 5517 5539 5560 5580 5600 5618 5634 5648 5661
5317 5307 5299 5293 5287 5282 5278 5275 5273 5272 5271 5271 5273 5276 5279 5285 5291 5298 5307 5315 5326 5339 5354 5373 5394 5417 5439 5462 5485 5507 5529 5550 5570 5589 5607 5624 5638 5651
5320 5311 5303 5296 5291 5286 5282 5278 5276 5274 5272 5272 5273 5274 5277 5281 5287 5294 5301 5311 5321 5335 5350 5369 5389 5410 5433 5454 5476 5497 5519 5540 5560 5579 5597 5613 5628 5642
5324 5315 5307 5300 5295 5290 5285 5282 5279 5276 5274 5273 5273 5274 5276 5280 5285 5291 5299 5308 5319 5333 5348 5366 5385 5405 5427 5448 5468 5489 5511 5531 5550 5569 5586 5604 5620 5635
5327 5318 5311 5304 5298 5294 5289 5285 5282 5279 5277 5275 5275 5275 5277 5280 5284 5290 5298 5308 5319 5332 5347 5364 5382 5401 5422 5442 5463 5483 5503 5523 5543 5561 5579 5595 5610 5625
5331 5322 5314 5308 5302 5297 5293 5289 5286 5283 5280 5279 5278 5277 5279 5281 5286 5292 5300 5310 5321 5333 5347 5364 5381 5399 5418 5438 5458 5477 5498 5517 5535 5553 5571 5587 5604 5618
5334 5325 5317 5311 5306 5301 5297 5294 5290 5287 5285 5283 5282 5282 5283 5286 5290 5296 5304 5313 5324 5335 5349 5365 5381 5398 5416 5435 5454 5474 5493 5511 5529 5547 5564 5580 5595 5610
5338 5329 5322 5315 5310 5305 5301 5298 5295 5292 5290 5288 5287 5287 5289 5291 5295 5301 5308 5317 5327 5339 5352 5366 5382 5398 5415 5433 5452 5471 5489 5507 5524 5541 5557 5572 5587 5602
5341 5333 5326 5319 5313 5309 5305 5302 5299 5297 5295 5294 5293 5294 5295 5298 5302 5307 5314 5322 5332 5342 5354 5367 5381 5397 5414 5432 5449 5467 5484 5501 5518 5535 5551 5566 5580 5594
5344 5336 5329 5323 5317 5312 5308 5306 5303 5302 5300 5300 5299 5300 5302 5305 5308 5313 5319 5327 5335 5345 5356 5368 5381 5396 5412 5428 5445 5463 5480 5496 5512 5528 5543 5559 5574 5589
5348 5340 5333 5326 5320 5316 5312 5309 5307 5306 5305 5305 5305 5306 5308 5310 5314 5319 5324 5331 5339 5348 5358 5369 5382 5395 5410 5426 5443 5460 5476 5492 5507 5522 5537 5551 5566 5580
5351 5343 5336 5329 5323 5318 5315 5312 5310 5309 5308 5308 5309 5310 5313 5315 5319 5323 5328 5334 5342 5350 5360 5370 5381 5395 5409 5424 5440 5456 5472 5487 5502 5517 5532 5546 5558 5570
5353 5346 5339 5332 5326 5321 5317 5314 5312 5311 5311 5311 5312 5314 5316 5319 5322 5327 5332 5338 5344 5352 5361 5371 5381 5393 5407 5422 5437 5452 5467 5482 5496 5510 5525 5541 5554 5566
5355 5348 5341 5335 5329 5324 5319 5316 5314 5313 5312 5313 5314 5316 5318 5321 5325 5329 5334 5340 5346 5354 5362 5371 5381 5392 5405 5419 5433 5447 5462 5477 5490 5504 5518 5531 5546 5558
Wind_Speed
38 32 28 23 20 17 15 13 17 25 36 47 57 63 65 66 68 75 86 100 112 120 124 124 120 116 111 106 101 97 93 89 84 79 75 71 68 66
38 32 26 22 19 17 14 13 15 22 32 42 51 59 61 61 62 65 74 87 102 114 121 123 122 118 114 109 104 100 96 91 86 81 77 74 70 67
39 32 27 21 18 16 14 13 14 20 28 37 46 54 57 58 58 59 65 76 92 105 116 122 123 120 116 112 107 102 98 94 88 82 78 75 72 69
38 32 27 21 17 15 13 12 13 17 24 32 41 49 53 55 54 55 58 67 81 96 109 118 122 121 118 114 110 105 101 96 92 85 80 76 73 71
39 33 27 21 17 14 13 11 11 14 20 28 36 43 49 52 52 52 53 60 72 87 102 113 119 120 118 115 112 107 103 98 93 87 82 76 74 71
40 34 27 22 17 14 12 10 9 12 17 24 31 38 44 48 49 50 50 54 65 79 93 106 115 119 118 116 112 109 104 100 96 90 84 78 73 70
41 35 29 23 19 15 12 9 8 10 14 20 26 33 39 43 46 47 47 50 58 72 86 99 109 116 118 116 114 111 107 102 98 93 87 80 75 70
41 35 30 24 20 16 12 9 7 8 11 17 23 29 34 39 42 44 45 47 53 66 79 92 104 111 115 116 114 111 108 103 99 95 89 83 78 73
41 35 30 26 21 17 13 9 7 6 8 13 19 25 30 34 38 40 42 44 49 60 72 84 97 105 112 114 114 112 109 104 100 96 91 86 80 76
41 36 30 26 22 18 14 10 7 5 5 10 15 21 26 31 35 37 39 41 47 56 67 77 90 99 106 111 113 112 109 105 100 96 92 86 81 76
41 36 30 26 23 19 16 13 9 6 3 5 10 16 22 28 32 35 37 40 46 54 64 73 83 93 100 107 110 110 109 105 101 97 93 87 80 76
41 36 31 26 23 20 17 15 12 9 5 2 4 10 16 23 28 32 35 40 47 54 61 69 77 87 93 101 107 109 107 105 101 97 94 89 83 77
42 35 30 26 23 20 18 16 13 11 8 5 1 5 11 18 24 30 34 40 47 53 59 67 73 81 87 93 100 104 105 102 100 96 91 87 82 76
42 36 30 26 22 20 18 16 14 12 10 7 3 3 9 15 21 27 34 40 48 53 58 65 70 76 82 87 91 98 101 100 97 94 90 85 81 76
42 37 31 27 23 20 17 16 15 13 11 9 6 4 8 14 20 27 34 41 47 51 57 64 66 69 77 83 87 93 95 95 93 90 88 84 80 77
40 38 33 28 23 20 17 16 15 13 11 9 8 7 10 15 20 27 34 41 46 50 56 62 65 67 71 76 81 85 88 88 89 88 86 83 79 76
40 38 34 29 24 20 17 15 14 13 11 10 9 9 11 16 21 27 34 40 45 50 55 59 61 64 69 73 76 80 81 81 82 82 82 81 78 75
39 37 33 29 25 20 17 14 13 12 11 10 9 10 12 17 22 27 33 39 44 50 54 57 60 63 65 68 72 75 77 76 77 77 78 77 76 74
39 36 33 29 25 21 17 13 11 10 10 9 9 9 12 17 22 28 33 38 44 49 54 56 59 64 67 66 67 69 70 71 73 73 72 72 72 70
39 36 33 30 26 21 17 13 10 8 7 7 7 9 12 16 20 26 31 36 42 47 51 54 57 62 68 69 68 68 68 67 68 69 68 67 68 69
38 36 33 31 27 22 17 13 9 6 4 4 6 8 11 15 19 24 28 33 39 45 50 53 56 61 67 70 70 69 69 67 65 64 65 65 66 67
37 36 34 31 28 24 18 13 9 5 2 2 5 8 11 15 19 23 27 32 38 43 47 51 54 59 66 71 72 71 69 67 64 62 62 61 60 62
35 35 34 31 29 25 20 14 9 5 1 3 6 9 12 15 19 22 26 31 36 41 45 50 54 58 64 69 71 71 70 67 64 62 61 58 57 56
Wind_Direction
334 328 322 315 309 307 299 278 246 227 219 215 213 213 214 215 216 217 216 214 212 209 207 207 207 207 207 207 207 207 207 208 209 211 214 215 217 217
339 333 325 317 307 302 293 277 251 230 221 217 214 213 214 215 216 217 217 216 213 210 208 206 206 206 206 206 206 206 207 207 208 210 212 215 216 218
343 338 331 321 310 301 291 276 255 234 222 219 216 214 213 214 215 217 217 217 214 211 209 206 205 205 205 205 205 206 206 206 207 209 211 214 217 218
349 344 338 329 318 306 293 278 257 237 224 219 217 214 213 214 215 217 218 217 215 213 210 207 205 204 204 204 204 205 205 206 207 208 210 214 216 219
354 351 346 339 327 314 300 284 261 238 225 219 217 214 214 214 215 217 219 218 216 213 211 208 206 204 203 203 204 204 205 205 206 207 209 213 215 218
357 355 352 347 337 324 308 290 268 241 224 217 215 214 214 214 215 217 219 219 216 213 211 209 206 204 203 203 203 203 204 205 205 206 208 211 214 218
359 358 356 351 346 336 320 301 277 246 224 215 213 213 214 214 215 217 219 219 216 213 210 208 207 204 203 202 202 203 204 204 205 206 207 209 212 215
1 0 359 356 352 345 334 317 292 256 228 216 212 211 212 214 215 217 219 219 215 211 209 208 207 205 203 202 202 202 203 204 205 205 207 209 211 215
3 2 2 1 359 355 347 335 313 274 238 220 213 210 210 212 214 216 217 217 213 209 207 206 206 204 203 202 202 202 203 204 205 206 207 209 212 216
4 5 5 5 6 5 3 355 342 314 259 227 215 211 210 211 213 214 215 213 209 205 204 203 204 204 203 202 202 202 203 203 204 206 206 209 212 214
5 7 7 7 9 11 11 8 3 353 317 241 218 211 210 210 211 211 211 208 202 199 199 199 201 202 203 202 202 202 203 203 204 206 206 207 211 213
6 7 8 9 11 13 13 14 13 9 360 317 230 212 208 207 206 206 204 200 195 192 193 194 197 199 201 202 202 203 203 204 204 206 207 209 211 214
7 8 9 11 12 14 14 14 15 15 13 6 298 210 203 202 202 200 197 193 189 186 188 189 192 196 199 201 202 203 203 204 205 206 207 209 211 213
8 9 10 11 13 14 14 15 17 18 20 23 31 177 188 191 192 191 189 186 183 182 183 185 188 193 197 198 200 202 204 204 205 206 207 208 210 211
8 9 11 12 13 16 18 19 21 22 25 32 50 118 162 174 180 182 181 179 178 179 180 181 184 189 195 197 200 202 203 205 205 206 207 208 210 211
7 10 11 12 14 17 20 22 25 29 34 43 63 105 142 159 169 174 175 175 175 175 177 178 182 186 190 194 197 200 202 204 206 206 207 208 210 211
8 10 11 12 12 14 19 23 28 35 43 54 73 102 134 152 162 168 170 171 172 173 174 176 179 184 188 191 194 197 200 203 205 205 207 208 210 212
8 9 10 12 13 14 18 23 30 38 49 62 81 107 133 150 159 165 168 170 170 172 174 176 178 179 183 188 192 195 198 202 204 206 207 209 210 212
8 9 10 10 12 14 17 22 29 38 51 67 90 115 136 151 161 166 169 170 170 172 174 176 177 179 180 182 185 191 194 198 202 204 207 209 211 212
8 9 10 10 11 12 14 18 24 35 51 74 102 127 143 155 164 168 171 173 173 174 175 176 178 180 182 183 185 188 190 195 200 203 206 208 210 211
7 8 9 10 10 11 11 13 17 25 47 90 121 140 153 160 166 171 174 175 176 175 176 177 178 179 180 181 182 184 186 190 194 199 204 206 209 210
7 8 9 9 10 10 9 7 8 12 30 137 155 158 163 167 170 173 175 177 178 178 178 177 177 178 181 183 184 185 187 188 190 194 198 202 207 210
6 7 8 8 9 9 8 4 359 353 326 201 187 180 176 176 177 178 178 180 180 180 181 181 179 179 181 183 184 187 189 189 189 190 191 195 199 201